| time (UTC) | temp C | wind direction | speed KPH | gust KPH | rain 1hr cm | rain 24hr cm | rain mn cm | humidity % | barometer mb |
| 20260507112104 | 12 | 85 | 0.0 | 1.6 | 0.00 | 0.00 | 0.00 | 77 | 1016.4 |
| 20260507111605 | 12 | 85 | 0.0 | 1.6 | 0.00 | 0.00 | 0.00 | 77 | 1016.4 |
| 20260507111104 | 12 | 85 | 0.0 | 1.6 | 0.00 | 0.00 | 0.00 | 77 | 1016.4 |
| 20260507110604 | 12 | 84 | 0.0 | 1.6 | 0.00 | 0.00 | 0.00 | 77 | 1016.4 |
| 20260507110105 | 12 | 84 | 0.0 | 1.6 | 0.00 | 0.00 | 0.00 | 77 | 1016.4 |
| 20260507105603 | 12 | 81 | 1.6 | 1.6 | 0.00 | 0.00 | 0.00 | 77 | 1016.4 |
| 20260507105104 | 12 | 83 | 0.0 | 1.6 | 0.00 | 0.00 | 0.00 | 77 | 1016.4 |
| 20260507104104 | 12 | 83 | 0.0 | 1.6 | 0.00 | 0.00 | 0.00 | 77 | 1016.5 |
| 20260507103604 | 12 | 82 | 0.0 | 1.6 | 0.00 | 0.00 | 0.00 | 77 | 1016.5 |
| 20260507103104 | 12 | 82 | 0.0 | 0.0 | 0.00 | 0.00 | 0.00 | 77 | 1016.5 |
| 20260507102604 | 12 | 82 | 0.0 | 1.6 | 0.00 | 0.00 | 0.00 | 77 | 1016.6 |
| 20260507102106 | 12 | 82 | 0.0 | 1.6 | 0.00 | 0.00 | 0.00 | 77 | 1016.6 |
| 20260507101604 | 12 | 82 | 0.0 | 1.6 | 0.00 | 0.00 | 0.00 | 76 | 1016.6 |
| 20260507101106 | 12 | 82 | 0.0 | 1.6 | 0.00 | 0.00 | 0.00 | 76 | 1016.7 |
| 20260507100604 | 12 | 82 | 0.0 | 1.6 | 0.00 | 0.00 | 0.00 | 75 | 1016.7 |
| 20260507100104 | 13 | 82 | 0.0 | 0.0 | 0.00 | 0.00 | 0.00 | 75 | 1017.0 |
| 20260507095603 | 13 | 82 | 0.0 | 0.0 | 0.00 | 0.00 | 0.00 | 75 | 1017.0 |
| 20260507095104 | 13 | 82 | 0.0 | 1.6 | 0.00 | 0.00 | 0.00 | 75 | 1017.0 |
| 20260507094604 | 13 | 82 | 0.0 | 1.6 | 0.00 | 0.00 | 0.00 | 75 | 1017.0 |
| 20260507094104 | 13 | 82 | 0.0 | 1.6 | 0.00 | 0.00 | 0.00 | 74 | 1017.0 |
| 20260507093603 | 13 | 82 | 0.0 | 1.6 | 0.00 | 0.00 | 0.00 | 74 | 1017.1 |
| 20260507093104 | 13 | 82 | 0.0 | 1.6 | 0.00 | 0.00 | 0.00 | 74 | 1017.1 |
| 20260507092104 | 13 | 82 | 0.0 | 1.6 | 0.00 | 0.00 | 0.00 | 75 | 1017.2 |
| 20260507091604 | 13 | 82 | 0.0 | 1.6 | 0.00 | 0.00 | 0.00 | 76 | 1017.2 |
| 20260507091104 | 13 | 82 | 0.0 | 1.6 | 0.00 | 0.00 | 0.00 | 77 | 1017.2 |
| 20260507090605 | 13 | 81 | 0.0 | 1.6 | 0.00 | 0.00 | 0.00 | 78 | 1017.2 |
| 20260507090105 | 13 | 82 | 0.0 | 3.2 | 0.00 | 0.00 | 0.00 | 77 | 1017.2 |
| 20260507085104 | 13 | 73 | 1.6 | 3.2 | 0.00 | 0.00 | 0.00 | 79 | 1017.3 |
| 20260507084604 | 13 | 74 | 0.0 | 3.2 | 0.00 | 0.00 | 0.00 | 79 | 1017.3 |
| 20260507084104 | 13 | 74 | 1.6 | 3.2 | 0.00 | 0.00 | 0.00 | 79 | 1017.5 |
| 20260507083604 | 13 | 41 | 1.6 | 1.6 | 0.00 | 0.00 | 0.00 | 79 | 1017.5 |
| 20260507083104 | 13 | 41 | 1.6 | 1.6 | 0.00 | 0.00 | 0.00 | 79 | 1017.5 |
| 20260507082604 | 13 | 31 | 0.0 | 1.6 | 0.00 | 0.00 | 0.00 | 79 | 1017.4 |
| 20260507082106 | 13 | 30 | 0.0 | 1.6 | 0.00 | 0.00 | 0.00 | 79 | 1017.4 |
| 20260507081605 | 13 | 30 | 0.0 | 3.2 | 0.00 | 0.00 | 0.00 | 79 | 1017.6 |
| 20260507080604 | 13 | 19 | 0.0 | 3.2 | 0.00 | 0.00 | 0.00 | 78 | 1017.5 |
| 20260507080105 | 13 | 17 | 0.0 | 3.2 | 0.00 | 0.00 | 0.00 | 77 | 1017.6 |
| 20260507075604 | 13 | 14 | 0.0 | 1.6 | 0.00 | 0.00 | 0.00 | 77 | 1017.6 |
| 20260507075104 | 13 | 15 | 0.0 | 0.0 | 0.00 | 0.00 | 0.00 | 76 | 1017.5 |
| 20260507074604 | 13 | 15 | 0.0 | 3.2 | 0.00 | 0.00 | 0.00 | 76 | 1017.6 |
| 20260507074104 | 13 | 14 | 0.0 | 3.2 | 0.00 | 0.00 | 0.00 | 76 | 1017.7 |
| 20260507073104 | 13 | 0 | 0.0 | 1.6 | 0.00 | 0.00 | 0.00 | 75 | 1017.7 |
| 20260507072603 | 13 | 0 | 0.0 | 1.6 | 0.00 | 0.00 | 0.00 | 75 | 1017.8 |
| 20260507072104 | 13 | 0 | 0.0 | 1.6 | 0.00 | 0.00 | 0.00 | 75 | 1017.8 |
| 20260507071104 | 14 | 355 | 0.0 | 1.6 | 0.00 | 0.00 | 0.00 | 74 | 1018.1 |
| 20260507070605 | 14 | 355 | 0.0 | 1.6 | 0.00 | 0.00 | 0.00 | 74 | 1018.1 |
| 20260507065605 | 14 | 355 | 0.0 | 1.6 | 0.00 | 0.00 | 0.00 | 73 | 1018.1 |
| 20260507065104 | 14 | 355 | 0.0 | 1.6 | 0.00 | 0.00 | 0.00 | 73 | 1018.2 |
| 20260507064604 | 15 | 355 | 0.0 | 1.6 | 0.00 | 0.00 | 0.00 | 72 | 1018.1 |
| 20260507063604 | 15 | 354 | 0.0 | 1.6 | 0.00 | 0.00 | 0.00 | 72 | 1018.2 |
| 20260507063104 | 15 | 355 | 0.0 | 1.6 | 0.00 | 0.00 | 0.00 | 72 | 1018.1 |
| 20260507062604 | 15 | 355 | 0.0 | 3.2 | 0.00 | 0.00 | 0.00 | 72 | 1018.2 |
| 20260507062106 | 15 | 354 | 0.0 | 3.2 | 0.00 | 0.00 | 0.00 | 72 | 1018.1 |
| 20260507061604 | 15 | 323 | 0.0 | 1.6 | 0.00 | 0.00 | 0.00 | 71 | 1017.9 |
| 20260507061106 | 15 | 323 | 0.0 | 1.6 | 0.00 | 0.00 | 0.00 | 71 | 1018.0 |
| 20260507060604 | 15 | 323 | 0.0 | 1.6 | 0.00 | 0.00 | 0.00 | 70 | 1018.0 |
| 20260507055605 | 15 | 323 | 1.6 | 1.6 | 0.00 | 0.00 | 0.00 | 70 | 1018.0 |
| 20260507055104 | 16 | 317 | 1.6 | 1.6 | 0.00 | 0.00 | 0.00 | 69 | 1018.0 |
| 20260507054104 | 16 | 315 | 0.0 | 0.0 | 0.00 | 0.00 | 0.00 | 68 | 1018.0 |
| 20260507053604 | 16 | 315 | 0.0 | 3.2 | 0.00 | 0.00 | 0.00 | 68 | 1017.9 |
| 20260507052604 | 16 | 315 | 0.0 | 3.2 | 0.00 | 0.00 | 0.00 | 67 | 1018.1 |
| 20260507052104 | 16 | 320 | 0.0 | 3.2 | 0.00 | 0.00 | 0.00 | 67 | 1018.0 |
| 20260507051604 | 16 | 315 | 0.0 | 1.6 | 0.00 | 0.00 | 0.00 | 67 | 1018.1 |
| 20260507051106 | 16 | 315 | 0.0 | 1.6 | 0.00 | 0.00 | 0.00 | 67 | 1018.1 |
| 20260507050604 | 16 | 315 | 0.0 | 1.6 | 0.00 | 0.00 | 0.00 | 66 | 1018.0 |
| 20260507050104 | 16 | 315 | 0.0 | 1.6 | 0.00 | 0.00 | 0.00 | 66 | 1018.1 |
| 20260507045604 | 16 | 315 | 0.0 | 3.2 | 0.00 | 0.00 | 0.00 | 66 | 1018.1 |
| 20260507045104 | 17 | 322 | 0.0 | 3.2 | 0.00 | 0.00 | 0.00 | 66 | 1018.1 |
| 20260507044104 | 17 | 298 | 1.6 | 3.2 | 0.00 | 0.00 | 0.00 | 65 | 1017.9 |
| 20260507043604 | 17 | 294 | 0.0 | 1.6 | 0.00 | 0.00 | 0.00 | 65 | 1017.9 |
| 20260507043104 | 17 | 294 | 0.0 | 1.6 | 0.00 | 0.00 | 0.00 | 65 | 1017.8 |
| 20260507042604 | 17 | 294 | 0.0 | 1.6 | 0.00 | 0.00 | 0.00 | 65 | 1017.8 |
| 20260507042106 | 17 | 294 | 0.0 | 1.6 | 0.00 | 0.00 | 0.00 | 64 | 1017.8 |
| 20260507041604 | 17 | 294 | 0.0 | 1.6 | 0.00 | 0.00 | 0.00 | 64 | 1017.8 |
| 20260507041107 | 17 | 294 | 0.0 | 1.6 | 0.00 | 0.00 | 0.00 | 64 | 1017.8 |
| 20260507040604 | 17 | 294 | 0.0 | 1.6 | 0.00 | 0.00 | 0.00 | 63 | 1017.8 |
| 20260507035604 | 18 | 293 | 0.0 | 4.8 | 0.00 | 0.00 | 0.00 | 62 | 1017.8 |
| 20260507035103 | 18 | 292 | 0.0 | 4.8 | 0.00 | 0.00 | 0.00 | 62 | 1017.8 |
| 20260507034604 | 18 | 292 | 3.2 | 4.8 | 0.00 | 0.00 | 0.00 | 61 | 1017.6 |
| 20260507034104 | 18 | 292 | 3.2 | 4.8 | 0.00 | 0.00 | 0.00 | 61 | 1017.6 |
| 20260507033605 | 18 | 292 | 3.2 | 8.0 | 0.00 | 0.00 | 0.00 | 61 | 1017.5 |
| 20260507033104 | 18 | 292 | 3.2 | 8.0 | 0.00 | 0.00 | 0.00 | 61 | 1017.3 |
| 20260507032104 | 18 | 280 | 4.8 | 8.0 | 0.00 | 0.00 | 0.00 | 60 | 1017.3 |
| 20260507031605 | 18 | 264 | 4.8 | 4.8 | 0.00 | 0.00 | 0.00 | 59 | 1017.2 |
| 20260507030604 | 19 | 248 | 3.2 | 4.8 | 0.00 | 0.00 | 0.00 | 58 | 1017.2 |
| 20260507030104 | 19 | 245 | 3.2 | 4.8 | 0.00 | 0.00 | 0.00 | 58 | 1017.2 |
| 20260507025604 | 19 | 243 | 1.6 | 4.8 | 0.00 | 0.00 | 0.00 | 58 | 1017.2 |
| 20260507025104 | 19 | 243 | 1.6 | 4.8 | 0.00 | 0.00 | 0.00 | 57 | 1017.1 |
| 20260507024604 | 19 | 243 | 1.6 | 4.8 | 0.00 | 0.00 | 0.00 | 57 | 1016.8 |
| 20260507024105 | 20 | 243 | 1.6 | 4.8 | 0.00 | 0.00 | 0.00 | 57 | 1016.7 |
| 20260507023604 | 20 | 243 | 1.6 | 4.8 | 0.00 | 0.00 | 0.00 | 56 | 1016.7 |
| 20260507023104 | 20 | 242 | 3.2 | 8.0 | 0.00 | 0.00 | 0.00 | 55 | 1016.7 |
| 20260507022604 | 20 | 305 | 3.2 | 8.0 | 0.00 | 0.00 | 0.00 | 54 | 1016.7 |
| 20260507022106 | 21 | 320 | 4.8 | 11.3 | 0.00 | 0.00 | 0.00 | 53 | 1016.7 |
| 20260507021604 | 21 | 254 | 3.2 | 12.9 | 0.00 | 0.00 | 0.00 | 53 | 1016.6 |
| 20260507020604 | 21 | 262 | 8.0 | 12.9 | 0.00 | 0.00 | 0.00 | 50 | 1016.5 |
| 20260507015604 | 22 | 244 | 8.0 | 16.1 | 0.00 | 0.00 | 0.00 | 48 | 1016.3 |
| 20260507014604 | 22 | 267 | 8.0 | 16.1 | 0.00 | 0.00 | 0.00 | 48 | 1016.3 |
| 20260507014104 | 22 | 258 | 8.0 | 14.5 | 0.00 | 0.00 | 0.00 | 48 | 1016.3 |
| 20260507013604 | 23 | 260 | 8.0 | 14.5 | 0.00 | 0.00 | 0.00 | 47 | 1016.3 |
| 20260507012104 | 23 | 265 | 9.7 | 16.1 | 0.00 | 0.00 | 0.00 | 43 | 1016.2 |
| 20260507011604 | 23 | 276 | 9.7 | 19.3 | 0.00 | 0.00 | 0.00 | 43 | 1016.2 |
| 20260507011105 | 24 | 274 | 11.3 | 19.3 | 0.00 | 0.00 | 0.00 | 42 | 1016.1 |
| 20260507010603 | 24 | 275 | 9.7 | 16.1 | 0.00 | 0.00 | 0.00 | 39 | 1016.0 |
| 20260507010104 | 24 | 263 | 8.0 | 16.1 | 0.00 | 0.00 | 0.00 | 40 | 1015.9 |
| 20260507005604 | 24 | 261 | 9.7 | 16.1 | 0.00 | 0.00 | 0.00 | 39 | 1015.9 |
| 20260507005104 | 25 | 275 | 8.0 | 19.3 | 0.00 | 0.00 | 0.00 | 37 | 1015.9 |
| 20260507004604 | 25 | 281 | 8.0 | 19.3 | 0.00 | 0.00 | 0.00 | 38 | 1015.8 |
| 20260507004105 | 25 | 282 | 9.7 | 19.3 | 0.00 | 0.00 | 0.00 | 35 | 1015.8 |
| 20260507003604 | 25 | 261 | 8.0 | 19.3 | 0.00 | 0.00 | 0.00 | 35 | 1015.8 |
| 20260507002604 | 25 | 322 | 11.3 | 19.3 | 0.00 | 0.00 | 0.00 | 32 | 1015.8 |
| 20260507001604 | 25 | 303 | 8.0 | 20.9 | 0.00 | 0.00 | 0.00 | 32 | 1015.8 |
| 20260507000603 | 25 | 294 | 8.0 | 19.3 | 0.00 | 0.00 | 0.00 | 32 | 1015.7 |
| 20260507000105 | 25 | 300 | 11.3 | 19.3 | 0.00 | 0.00 | 0.00 | 31 | 1015.8 |
| 20260506235604 | 25 | 320 | 8.0 | 19.3 | 0.00 | 0.00 | 0.00 | 32 | 1015.8 |
| 20260506234604 | 25 | 323 | 9.7 | 16.1 | 0.00 | 0.00 | 0.00 | 31 | 1015.6 |
| 20260506234104 | 25 | 309 | 9.7 | 20.9 | 0.00 | 0.00 | 0.00 | 32 | 1015.5 |
| 20260506233604 | 26 | 318 | 11.3 | 20.9 | 0.00 | 0.00 | 0.00 | 31 | 1015.7 |
| 20260506233104 | 26 | 276 | 8.0 | 16.1 | 0.00 | 0.00 | 0.00 | 30 | 1015.7 |
| 20260506232104 | 26 | 298 | 4.8 | 12.9 | 0.00 | 0.00 | 0.00 | 31 | 1015.7 |
| 20260506231604 | 25 | 265 | 3.2 | 12.9 | 0.00 | 0.00 | 0.00 | 31 | 1015.7 |
| 20260506230604 | 25 | 265 | 6.4 | 16.1 | 0.00 | 0.00 | 0.00 | 31 | 1015.9 |
| 20260506230105 | 25 | 0 | 4.8 | 14.5 | 0.00 | 0.00 | 0.00 | 30 | 1016.0 |
| 20260506225604 | 26 | 255 | 9.7 | 14.5 | 0.00 | 0.00 | 0.00 | 30 | 1016.0 |
| 20260506224608 | 25 | 269 | 1.6 | 11.3 | 0.00 | 0.00 | 0.00 | 31 | 1016.1 |
| 20260506224104 | 25 | 243 | 4.8 | 16.1 | 0.00 | 0.00 | 0.00 | 32 | 1016.1 |
| 20260506223604 | 25 | 296 | 4.8 | 16.1 | 0.00 | 0.00 | 0.00 | 31 | 1016.1 |
| 20260506223104 | 25 | 280 | 8.0 | 16.1 | 0.00 | 0.00 | 0.00 | 31 | 1016.2 |
| 20260506222603 | 25 | 284 | 8.0 | 14.5 | 0.00 | 0.00 | 0.00 | 30 | 1016.2 |
| 20260506222105 | 25 | 288 | 3.2 | 9.7 | 0.00 | 0.00 | 0.00 | 31 | 1016.2 |
| 20260506221604 | 24 | 313 | 3.2 | 16.1 | 0.00 | 0.00 | 0.00 | 32 | 1016.3 |
| 20260506221107 | 24 | 252 | 8.0 | 16.1 | 0.00 | 0.00 | 0.00 | 31 | 1016.6 |
| 20260506220604 | 24 | 272 | 8.0 | 14.5 | 0.00 | 0.00 | 0.00 | 32 | 1016.7 |
| 20260506220104 | 24 | 269 | 8.0 | 16.1 | 0.00 | 0.00 | 0.00 | 32 | 1016.7 |
| 20260506214104 | 24 | 276 | 6.4 | 12.9 | 0.00 | 0.00 | 0.00 | 32 | 1016.9 |
| 20260506213604 | 23 | 298 | 8.0 | 12.9 | 0.00 | 0.00 | 0.00 | 32 | 1017.0 |
| 20260506213104 | 23 | 294 | 4.8 | 12.9 | 0.00 | 0.00 | 0.00 | 32 | 1017.1 |
| 20260506212104 | 23 | 319 | 3.2 | 9.7 | 0.00 | 0.00 | 0.00 | 34 | 1017.3 |
| 20260506211104 | 23 | 249 | 4.8 | 19.3 | 0.00 | 0.00 | 0.00 | 31 | 1017.4 |
| 20260506210604 | 22 | 251 | 8.0 | 19.3 | 0.00 | 0.00 | 0.00 | 34 | 1017.4 |
| 20260506210105 | 22 | 259 | 3.2 | 14.5 | 0.00 | 0.00 | 0.00 | 35 | 1017.4 |
| 20260506205604 | 22 | 275 | 6.4 | 14.5 | 0.00 | 0.00 | 0.00 | 37 | 1017.4 |
| 20260506204603 | 22 | 332 | 4.8 | 12.9 | 0.00 | 0.00 | 0.00 | 35 | 1017.5 |
| 20260506204104 | 22 | 294 | 6.4 | 12.9 | 0.00 | 0.00 | 0.00 | 34 | 1017.5 |
| 20260506202604 | 21 | 290 | 4.8 | 11.3 | 0.00 | 0.00 | 0.00 | 36 | 1017.8 |
| 20260506202107 | 21 | 293 | 3.2 | 11.3 | 0.00 | 0.00 | 0.00 | 38 | 1017.9 |
| 20260506201604 | 21 | 284 | 4.8 | 14.5 | 0.00 | 0.00 | 0.00 | 35 | 1017.9 |
| 20260506201106 | 21 | 299 | 3.2 | 14.5 | 0.00 | 0.00 | 0.00 | 36 | 1018.0 |
| 20260506200604 | 21 | 305 | 4.8 | 14.5 | 0.00 | 0.00 | 0.00 | 39 | 1018.0 |
| 20260506200104 | 20 | 298 | 4.8 | 14.5 | 0.00 | 0.00 | 0.00 | 39 | 1018.1 |
| 20260506195604 | 20 | 259 | 3.2 | 12.9 | 0.00 | 0.00 | 0.00 | 39 | 1018.2 |
| 20260506194604 | 20 | 279 | 8.0 | 12.9 | 0.00 | 0.00 | 0.00 | 40 | 1018.4 |
| 20260506194103 | 20 | 306 | 4.8 | 14.5 | 0.00 | 0.00 | 0.00 | 41 | 1018.4 |
| 20260506193604 | 20 | 309 | 4.8 | 14.5 | 0.00 | 0.00 | 0.00 | 42 | 1018.5 |
| 20260506193105 | 20 | 257 | 9.7 | 14.5 | 0.00 | 0.00 | 0.00 | 43 | 1018.6 |
| 20260506192604 | 20 | 301 | 8.0 | 11.3 | 0.00 | 0.00 | 0.00 | 43 | 1018.6 |
| 20260506192104 | 19 | 271 | 6.4 | 11.3 | 0.00 | 0.00 | 0.00 | 45 | 1018.6 |
| 20260506191105 | 19 | 317 | 9.7 | 14.5 | 0.00 | 0.00 | 0.00 | 45 | 1018.7 |
| 20260506190604 | 18 | 274 | 6.4 | 14.5 | 0.00 | 0.00 | 0.00 | 46 | 1018.7 |
| 20260506190104 | 18 | 257 | 1.6 | 12.9 | 0.00 | 0.00 | 0.00 | 47 | 1018.7 |
| 20260506185604 | 18 | 249 | 3.2 | 12.9 | 0.00 | 0.00 | 0.00 | 47 | 1018.7 |
| 20260506184604 | 18 | 299 | 6.4 | 16.1 | 0.00 | 0.00 | 0.00 | 48 | 1018.9 |
| 20260506184104 | 18 | 318 | 8.0 | 16.1 | 0.00 | 0.00 | 0.00 | 48 | 1018.8 |
| 20260506183604 | 17 | 317 | 3.2 | 11.3 | 0.00 | 0.00 | 0.00 | 48 | 1019.0 |
| 20260506183104 | 17 | 327 | 6.4 | 12.9 | 0.00 | 0.00 | 0.00 | 48 | 1019.1 |
| 20260506182106 | 17 | 291 | 3.2 | 8.0 | 0.00 | 0.00 | 0.00 | 51 | 1019.2 |
| 20260506181604 | 17 | 287 | 3.2 | 12.9 | 0.00 | 0.00 | 0.00 | 50 | 1019.3 |
| 20260506181107 | 17 | 273 | 4.8 | 12.9 | 0.00 | 0.00 | 0.00 | 50 | 1019.4 |
| 20260506180605 | 17 | 315 | 8.0 | 12.9 | 0.00 | 0.00 | 0.00 | 51 | 1019.4 |
| 20260506180104 | 17 | 328 | 1.6 | 11.3 | 0.00 | 0.00 | 0.00 | 50 | 1019.4 |
| 20260506175604 | 16 | 328 | 4.8 | 11.3 | 0.00 | 0.00 | 0.00 | 53 | 1019.4 |
| 20260506175104 | 16 | 300 | 4.8 | 11.3 | 0.00 | 0.00 | 0.00 | 54 | 1019.4 |
| 20260506174604 | 16 | 331 | 4.8 | 11.3 | 0.00 | 0.00 | 0.00 | 53 | 1019.4 |
| 20260506174104 | 16 | 322 | 6.4 | 12.9 | 0.00 | 0.00 | 0.00 | 53 | 1019.4 |
| 20260506173104 | 16 | 267 | 6.4 | 11.3 | 0.00 | 0.00 | 0.00 | 56 | 1019.4 |
| 20260506172604 | 16 | 321 | 3.2 | 11.3 | 0.00 | 0.00 | 0.00 | 55 | 1019.4 |
| 20260506171104 | 15 | 316 | 4.8 | 11.3 | 0.00 | 0.00 | 0.00 | 57 | 1019.4 |
| 20260506170603 | 15 | 280 | 8.0 | 11.3 | 0.00 | 0.00 | 0.00 | 58 | 1019.4 |
| 20260506170104 | 15 | 289 | 6.4 | 9.7 | 0.00 | 0.00 | 0.00 | 58 | 1019.3 |
| 20260506165604 | 15 | 246 | 4.8 | 11.3 | 0.00 | 0.00 | 0.00 | 57 | 1019.3 |
| 20260506165104 | 15 | 285 | 4.8 | 11.3 | 0.00 | 0.00 | 0.00 | 58 | 1019.4 |
| 20260506164604 | 15 | 278 | 6.4 | 9.7 | 0.00 | 0.00 | 0.00 | 57 | 1019.4 |
| 20260506163603 | 14 | 307 | 3.2 | 8.0 | 0.00 | 0.00 | 0.00 | 61 | 1019.3 |
| 20260506163104 | 14 | 314 | 3.2 | 8.0 | 0.00 | 0.00 | 0.00 | 60 | 1019.4 |
| 20260506162604 | 13 | 321 | 4.8 | 8.0 | 0.00 | 0.00 | 0.00 | 61 | 1019.3 |
| 20260506160604 | 13 | 282 | 1.6 | 4.8 | 0.00 | 0.03 | 0.00 | 65 | 1019.4 |
| 20260506160104 | 13 | 282 | 3.2 | 8.0 | 0.00 | 0.03 | 0.00 | 65 | 1019.4 |
| 20260506155605 | 13 | 281 | 4.8 | 8.0 | 0.00 | 0.03 | 0.00 | 66 | 1019.4 |
| 20260506155104 | 13 | 329 | 3.2 | 4.8 | 0.00 | 0.03 | 0.00 | 66 | 1019.3 |
| 20260506154604 | 13 | 329 | 3.2 | 4.8 | 0.00 | 0.03 | 0.00 | 67 | 1019.3 |
| 20260506153603 | 13 | 346 | 1.6 | 4.8 | 0.00 | 0.03 | 0.00 | 69 | 1019.3 |
| 20260506153104 | 12 | 346 | 0.0 | 4.8 | 0.00 | 0.03 | 0.00 | 70 | 1019.2 |
| 20260506152603 | 12 | 346 | 0.0 | 4.8 | 0.00 | 0.03 | 0.00 | 69 | 1019.3 |
| 20260506152104 | 12 | 346 | 0.0 | 4.8 | 0.00 | 0.03 | 0.00 | 70 | 1019.3 |
| 20260506151604 | 12 | 346 | 3.2 | 4.8 | 0.00 | 0.03 | 0.00 | 70 | 1019.3 |
| 20260506151106 | 12 | 117 | 0.0 | 4.8 | 0.00 | 0.03 | 0.00 | 72 | 1019.3 |
| 20260506150604 | 12 | 117 | 0.0 | 1.6 | 0.00 | 0.03 | 0.00 | 72 | 1019.3 |
| 20260506150104 | 11 | 117 | 0.0 | 3.2 | 0.00 | 0.03 | 0.00 | 73 | 1019.2 |
| 20260506145604 | 12 | 117 | 0.0 | 3.2 | 0.00 | 0.03 | 0.00 | 73 | 1019.3 |
| 20260506145104 | 12 | 115 | 0.0 | 1.6 | 0.00 | 0.03 | 0.00 | 75 | 1019.3 |
| 20260506144604 | 12 | 115 | 0.0 | 0.0 | 0.00 | 0.03 | 0.00 | 78 | 1019.3 |
| 20260506144103 | 11 | 115 | 0.0 | 0.0 | 0.00 | 0.03 | 0.00 | 80 | 1019.2 |
| 20260506143604 | 11 | 115 | 0.0 | 0.0 | 0.00 | 0.05 | 0.00 | 81 | 1019.1 |
| 20260506143104 | 10 | 115 | 0.0 | 1.6 | 0.00 | 0.08 | 0.00 | 83 | 1019.1 |
| 20260506142605 | 10 | 115 | 0.0 | 3.2 | 0.00 | 0.08 | 0.00 | 84 | 1019.1 |
| 20260506142104 | 10 | 115 | 0.0 | 3.2 | 0.00 | 0.10 | 0.00 | 85 | 1019.0 |
| 20260506141605 | 9 | 117 | 1.6 | 1.6 | 0.00 | 0.10 | 0.00 | 86 | 1019.0 |
| 20260506141107 | 9 | 120 | 0.0 | 1.6 | 0.00 | 0.15 | 0.00 | 87 | 1019.0 |
| 20260506140603 | 8 | 120 | 0.0 | 1.6 | 0.00 | 0.15 | 0.00 | 87 | 1019.0 |
| 20260506135604 | 8 | 120 | 0.0 | 3.2 | 0.00 | 0.15 | 0.00 | 87 | 1018.9 |
| 20260506135104 | 8 | 120 | 0.0 | 3.2 | 0.00 | 0.18 | 0.00 | 87 | 1018.9 |
| 20260506134604 | 8 | 123 | 0.0 | 3.2 | 0.00 | 0.18 | 0.00 | 87 | 1018.9 |
| 20260506134104 | 7 | 146 | 0.0 | 3.2 | 0.00 | 0.18 | 0.00 | 87 | 1018.9 |
| 20260506133604 | 7 | 146 | 0.0 | 1.6 | 0.00 | 0.18 | 0.00 | 87 | 1018.8 |
| 20260506133104 | 7 | 146 | 0.0 | 1.6 | 0.00 | 0.20 | 0.00 | 87 | 1018.8 |
| 20260506132604 | 7 | 146 | 0.0 | 3.2 | 0.00 | 0.20 | 0.00 | 87 | 1018.8 |
| 20260506132104 | 7 | 146 | 0.0 | 3.2 | 0.00 | 0.23 | 0.00 | 88 | 1018.8 |
| 20260506130605 | 7 | 149 | 1.6 | 3.2 | 0.00 | 0.30 | 0.00 | 88 | 1018.7 |
| 20260506130104 | 7 | 149 | 0.0 | 3.2 | 0.00 | 0.33 | 0.00 | 87 | 1018.7 |
| 20260506125104 | 7 | 149 | 0.0 | 3.2 | 0.00 | 0.33 | 0.00 | 87 | 1018.5 |
| 20260506124604 | 7 | 150 | 0.0 | 3.2 | 0.00 | 0.33 | 0.00 | 87 | 1018.4 |
| 20260506123604 | 7 | 150 | 0.0 | 3.2 | 0.00 | 0.33 | 0.00 | 87 | 1018.4 |
| 20260506123104 | 7 | 150 | 1.6 | 3.2 | 0.00 | 0.33 | 0.00 | 87 | 1018.4 |
| 20260506122604 | 7 | 150 | 1.6 | 3.2 | 0.00 | 0.33 | 0.00 | 87 | 1018.4 |
| 20260506122104 | 7 | 151 | 1.6 | 3.2 | 0.00 | 0.33 | 0.00 | 87 | 1018.4 |
| 20260506121604 | 7 | 151 | 1.6 | 3.2 | 0.00 | 0.33 | 0.00 | 86 | 1018.4 |
| 20260506121106 | 7 | 151 | 0.0 | 1.6 | 0.00 | 0.33 | 0.00 | 87 | 1018.4 |
| 20260506120604 | 7 | 151 | 0.0 | 1.6 | 0.00 | 0.36 | 0.00 | 87 | 1018.4 |
| 20260506120104 | 7 | 151 | 0.0 | 1.6 | 0.00 | 0.36 | 0.00 | 87 | 1018.4 |
| 20260506115604 | 7 | 151 | 0.0 | 1.6 | 0.00 | 0.36 | 0.00 | 87 | 1018.4 |
| 20260506115104 | 7 | 151 | 0.0 | 1.6 | 0.00 | 0.36 | 0.00 | 87 | 1018.4 |
| 20260506114604 | 7 | 151 | 0.0 | 1.6 | 0.00 | 0.36 | 0.00 | 87 | 1018.4 |
| 20260506114104 | 7 | 151 | 0.0 | 1.6 | 0.00 | 0.38 | 0.00 | 87 | 1018.4 |
| 20260506113604 | 7 | 151 | 0.0 | 1.6 | 0.00 | 0.38 | 0.00 | 86 | 1018.4 |
| 20260506113104 | 7 | 151 | 0.0 | 1.6 | 0.00 | 0.38 | 0.00 | 86 | 1018.4 |